Date String (YYYY-MM-DD hh:mm:ss) UTC,Instrument flags,Ambient pressure (hPa),Sample flow (lpm),Bypass flow (lpm),Sample temperature (°C),Ambient temperature (°C),ASC tube jacket temperature (°C),LED temperature (°C),Box temperature (°C),Sample RH (%),Span deviation,Mass concentration (μg/m³),Mass concentration (μg/m³),Mass concentration (μg/m³)
DateTimeUTC,F1_M11,P_M11,Q1_M11,Q2_M11,T1_M11,T2_M11,T3_M11,T4_M11,T5_M11,U1_M11,ZSPAN_M11,X0_M11,X2_M11,X1_M11
2023-02-10 09:00:00,,0834.1,5.01,0.00,21.5,21.4,00.0,30.3,23.2,06.9,0000.0,0007.16,0002.66,0002.27
2023-02-10 09:01:00,,0834.1,4.96,0.00,21.4,20.7,00.0,30.3,23.0,06.9,0000.0,0007.00,0002.67,0002.28
2023-02-10 09:02:00,,0834.1,4.97,0.00,21.4,20.1,00.0,30.3,22.8,06.9,0000.0,0007.13,0002.72,0002.28
2023-02-10 09:03:00,,0834.0,4.92,0.00,21.3,19.6,00.0,30.3,22.7,06.9,0000.0,0007.30,0002.75,0002.29
2023-02-10 09:04:00,,0834.0,4.97,0.00,21.2,19.3,00.0,30.3,22.6,07.0,0000.0,0007.25,0002.73,0002.29
2023-02-10 09:05:00,,0834.1,5.01,0.00,21.3,20.2,00.0,30.2,22.8,07.0,0000.0,0006.78,0002.68,0002.28
2023-02-10 09:06:00,,0834.1,5.03,0.00,21.4,21.5,00.0,30.2,23.2,06.9,0000.0,0005.50,0002.67,0002.28
2023-02-10 09:07:00,,0834.1,4.99,0.00,21.5,22.3,00.0,30.2,23.4,06.9,0000.0,0005.43,0002.65,0002.26
2023-02-10 09:08:00,,0834.1,4.98,0.00,21.6,22.1,00.0,30.3,23.5,06.8,0000.0,0005.39,0002.60,0002.23
2023-02-10 09:09:00,,0834.1,5.01,0.00,21.6,21.3,00.0,30.3,23.2,06.8,0000.0,0006.17,0002.55,0002.21
2023-02-10 09:10:00,,0834.1,4.94,0.00,21.5,20.6,00.0,30.4,23.1,06.8,0000.0,0005.84,0002.61,0002.23
2023-02-10 09:11:00,,0834.0,5.01,0.00,21.5,20.0,00.0,30.4,22.9,06.8,0000.0,0005.33,0002.61,0002.24
2023-02-10 09:12:00,,0834.0,4.99,0.00,21.4,19.5,00.0,30.4,22.7,06.9,0000.0,0005.26,0002.61,0002.24
2023-02-10 09:13:00,,0834.0,5.00,0.00,21.3,19.1,00.0,30.3,22.6,06.9,0000.0,0005.16,0002.58,0002.24
2023-02-10 09:14:00,,0834.1,5.05,0.00,21.2,19.1,00.0,30.3,22.5,06.9,0000.0,0005.17,0002.52,0002.23
2023-02-10 09:15:00,,0834.1,5.04,0.00,21.3,20.5,00.0,30.2,22.8,06.9,0000.0,0005.42,0002.50,0002.21
2023-02-10 09:16:00,,0834.1,4.99,0.00,21.4,21.7,00.0,30.2,23.2,06.9,0000.0,0005.48,0002.50,0002.19
2023-02-10 09:17:00,,0834.0,5.02,0.00,21.5,22.4,00.0,30.2,23.4,06.8,0000.0,0005.74,0002.53,0002.19
2023-02-10 09:18:00,,0834.1,4.97,0.00,21.6,21.7,00.0,30.3,23.3,06.8,0000.0,0005.73,0002.50,0002.17
2023-02-10 09:19:00,,0834.0,5.00,0.00,21.5,20.9,00.0,30.3,23.1,06.8,0000.0,0005.73,0002.52,0002.18
2023-02-10 09:20:00,,0834.1,5.01,0.00,21.4,20.1,00.0,30.3,22.8,06.9,0000.0,0004.95,0002.56,0002.18
2023-02-10 09:21:00,,0834.0,5.01,0.00,21.3,19.5,00.0,30.3,22.6,06.9,0000.0,0004.40,0002.51,0002.15
2023-02-10 09:22:00,,0834.0,5.01,0.00,21.3,19.1,00.0,30.3,22.5,06.9,0000.0,0004.37,0002.48,0002.12
2023-02-10 09:23:00,,0834.0,5.04,0.00,21.2,19.1,00.0,30.3,22.5,07.0,0000.0,0004.32,0002.44,0002.09
2023-02-10 09:24:00,,0834.0,5.04,0.00,21.2,20.4,00.0,30.2,22.8,06.9,0000.0,0004.25,0002.39,0002.07
2023-02-10 09:25:00,,0834.0,5.04,0.00,21.4,21.6,00.0,30.2,23.2,06.9,0000.0,0004.09,0002.37,0002.04
2023-02-10 09:26:00,,0834.0,4.97,0.00,21.5,22.4,00.0,30.2,23.4,06.8,0000.0,0003.68,0002.39,0002.05
2023-02-10 09:27:00,,0833.8,5.03,0.00,21.6,21.8,00.0,30.3,23.3,06.8,0000.0,0003.60,0002.37,0002.04
2023-02-10 09:28:00,,0833.9,5.01,0.00,21.5,20.9,00.0,30.3,23.0,06.8,0000.0,0003.25,0002.30,0002.02
2023-02-10 09:29:00,,0833.8,5.01,0.00,21.4,20.1,00.0,30.3,22.8,06.8,0000.0,0003.10,0002.29,0002.02
2023-02-10 09:30:00,,0833.8,5.00,0.00,21.3,19.6,00.0,30.3,22.7,06.8,0000.0,0003.13,0002.29,0002.02
2023-02-10 09:31:00,,0833.8,5.00,0.00,21.3,19.2,00.0,30.3,22.5,06.9,0000.0,0003.14,0002.24,0002.01
2023-02-10 09:32:00,,0833.8,4.97,0.00,21.2,18.9,00.0,30.3,22.4,06.9,0000.0,0003.21,0002.25,0002.00
2023-02-10 09:33:00,,0833.9,5.04,0.00,21.1,19.5,00.0,30.2,22.6,06.9,0000.0,0003.17,0002.23,0001.99
2023-02-10 09:34:00,,0833.8,4.95,0.00,21.2,20.9,00.0,30.2,22.9,06.8,0000.0,0003.15,0002.24,0001.99
2023-02-10 09:35:00,,0833.8,5.06,0.00,21.4,22.0,00.0,30.2,23.2,06.8,0000.0,0003.18,0002.24,0001.99
2023-02-10 09:36:00,,0833.8,4.97,0.00,21.5,22.3,00.0,30.2,23.4,06.7,0000.0,0003.23,0002.27,0001.99
2023-02-10 09:37:00,,0833.7,5.01,0.00,21.5,21.3,00.0,30.3,23.2,06.7,0000.0,0003.21,0002.25,0001.99
2023-02-10 09:38:00,,0833.7,4.99,0.00,21.4,20.6,00.0,30.3,23.0,06.8,0000.0,0003.22,0002.25,0001.99
2023-02-10 09:39:00,,0833.7,5.05,0.00,21.4,20.1,00.0,30.3,22.8,06.8,0000.0,0003.33,0002.28,0002.00
2023-02-10 09:40:00,,0833.7,4.97,0.00,21.3,19.6,00.0,30.3,22.7,06.8,0000.0,0003.41,0002.29,0002.00
2023-02-10 09:41:00,,0833.7,5.05,0.00,21.2,19.2,00.0,30.3,22.5,06.8,0000.0,0003.35,0002.29,0002.01
2023-02-10 09:42:00,,0833.7,4.94,0.00,21.2,19.6,00.0,30.2,22.6,06.8,0000.0,0003.13,0002.30,0002.01
2023-02-10 09:43:00,,0833.7,5.04,0.00,21.3,21.0,00.0,30.2,23.0,06.8,0000.0,0002.99,0002.26,0002.00
2023-02-10 09:44:00,,0833.7,5.03,0.00,21.4,22.0,00.0,30.2,23.3,06.7,0000.0,0003.00,0002.27,0002.00
2023-02-10 09:45:00,,0833.7,5.00,0.00,21.6,22.4,00.0,30.2,23.5,06.7,0000.0,0003.10,0002.30,0002.01
2023-02-10 09:46:00,,0833.7,5.00,0.00,21.6,21.5,00.0,30.3,23.3,06.6,0000.0,0003.11,0002.31,0002.01
2023-02-10 09:47:00,,0833.7,5.04,0.00,21.5,20.6,00.0,30.3,23.0,06.6,0000.0,0003.07,0002.31,0002.02
2023-02-10 09:48:00,,0833.6,4.94,0.00,21.4,20.0,00.0,30.3,22.8,06.6,0000.0,0003.02,0002.28,0002.01
2023-02-10 09:49:00,,0833.6,5.03,0.00,21.3,19.6,00.0,30.3,22.7,06.6,0000.0,0003.12,0002.32,0002.01
2023-02-10 09:50:00,,0833.7,4.96,0.00,21.3,19.3,00.0,30.3,22.6,06.6,0000.0,0003.13,0002.34,0002.01
2023-02-10 09:51:00,,0833.6,5.03,0.00,21.2,19.6,00.0,30.2,22.7,06.7,0000.0,0003.05,0002.32,0002.01
2023-02-10 09:52:00,,0833.7,4.96,0.00,21.3,20.9,00.0,30.2,23.0,06.6,0000.0,0003.14,0002.33,0002.01
2023-02-10 09:53:00,,0833.6,5.02,0.00,21.5,22.0,00.0,30.2,23.3,06.6,0000.0,0003.30,0002.33,0002.03
2023-02-10 09:54:00,,0833.6,5.03,0.00,21.6,22.6,00.0,30.3,23.5,06.6,0000.0,0003.40,0002.39,0002.06
2023-02-10 09:55:00,,0833.7,4.97,0.00,21.6,21.7,00.0,30.3,23.3,06.5,0000.0,0003.49,0002.44,0002.08
2023-02-10 09:56:00,,0833.6,5.02,0.00,21.6,21.0,00.0,30.4,23.2,06.5,0000.0,0003.41,0002.42,0002.09
2023-02-10 09:57:00,,0833.6,5.01,0.00,21.5,20.4,00.0,30.4,23.0,06.6,0000.0,0003.51,0002.43,0002.10
2023-02-10 09:58:00,,0833.6,5.04,0.00,21.5,19.9,00.0,30.4,22.9,06.6,0000.0,0003.62,0002.45,0002.11
2023-02-10 09:59:00,,0833.6,4.98,0.00,21.4,19.5,00.0,30.4,22.8,06.6,0000.0,0003.75,0002.51,0002.13
